Location: Lafig�re
(44.4503°N, 4.0357°E)
Time: 19:09:29
(UTC+00:00)

USA 234 - Visible Passes

Search period start: 26 January 2021 00:00
Search period end: 05 February 2021 00:00
Orbit: 1098 x 1110 km, 123.0° (Epoch: 22 January)

Date Brightness Start Highest point End Pass type
(mag) Time Alt. Az. Time Alt. Az. Time Alt. Az.
26 Jan 4.4 17:47:42 12° NE 17:52:47 29° N 17:58:15 10° WNW visible
26 Jan 4.0 19:35:03 38° NNE 19:35:03 38° NNE 19:40:41 10° NW visible
26 Jan 5.4 21:22:23 18° NW 21:22:23 18° NW 21:23:52 10° NW visible
27 Jan 4.3 18:50:28 26° NE 18:52:30 31° N 18:58:05 10° NW visible
27 Jan 4.7 20:37:48 30° NNW 20:37:48 30° NNW 20:41:02 10° NW visible
28 Jan 4.4 18:05:52 14° NE 18:10:19 29° N 18:15:48 10° WNW visible
28 Jan 4.1 19:53:13 37° N 19:53:13 37° N 19:58:14 10° NW visible
28 Jan 5.6 21:40:33 15° NW 21:40:33 15° NW 21:41:26 10° NW visible
29 Jan 4.4 17:22:30 10° NE 17:28:09 32° NNW 17:33:49 10° WNW visible
29 Jan 4.2 19:08:37 29° NNE 19:10:03 31° N 19:15:38 10° NW visible
29 Jan 4.9 20:55:57 25° NW 20:55:57 25° NW 20:58:35 10° NW visible
30 Jan 4.4 18:24:01 17° NE 18:27:53 29° N 18:33:21 10° WNW visible
30 Jan 4.3 20:11:21 34° N 20:11:21 34° N 20:15:47 10° NW visible
30 Jan 5.8 21:58:41 11° NW 21:58:41 11° NW 21:58:59 10° NW visible
31 Jan 4.4 17:40:02 10° NE 17:45:42 32° NNW 17:51:21 10° WNW visible
31 Jan 4.2 19:26:45 30° NNE 19:27:36 31° N 19:33:11 10° NW visible
31 Jan 5.2 21:14:05 21° NW 21:14:05 21° NW 21:16:09 10° NW visible
01 Feb 4.4 18:42:08 19° NE 18:45:26 29° N 18:50:54 10° WNW visible
01 Feb 4.5 20:29:28 31° NNW 20:29:28 31° NNW 20:33:21 10° NW visible
02 Feb 4.4 17:57:36 10° NE 18:03:15 32° NNW 18:08:54 10° WNW visible
02 Feb 4.3 19:44:51 31° NNE 19:45:08 31° N 19:50:45 10° NW visible
02 Feb 5.4 21:32:12 18° NW 21:32:12 18° NW 21:33:42 10° NW visible
03 Feb 4.5 19:00:14 22° NE 19:02:59 29° N 19:08:27 10° WNW visible
03 Feb 4.8 20:47:34 28° NNW 20:47:34 28° NNW 20:50:54 10° NW visible
04 Feb 4.4 18:15:37 12° NE 18:20:48 32° N 18:26:27 10° WNW visible
04 Feb 4.4 20:02:57 31° N 20:02:57 31° N 20:08:17 10° NW visible
04 Feb 5.6 21:50:17 15° NW 21:50:17 15° NW 21:51:16 10° NW visible
